Regional Weather Roundup
Issued by NWS Sioux Falls, SD

Home | Current Version | Previous Version | Text Only | Print | Product List | Glossary On
Versions: 1 2 3 4 5 6 7 8 9 10 11 12 13 14 15 16 17 18 19 20 21 22 23 24 25 26 27 28 29 30 31 32 33 34 35 36 37 38 39 40 41 42 43 44 45 46 47 48 49 50
000
ASUS43 KFSD 020410
RWRFSD

WEATHER ROUNDUP FOR SE SOUTH DAKOTA/SW MINNESOTA/NW IOWA
NATIONAL WEATHER SERVICE SIOUX FALLS SD
1100 PM CDT MON SEP 01 2014

NOTE: "FAIR" INDICATES FEW OR NO CLOUDS BELOW 12,000 FEET WITH NO
SIGNIFICANT WEATHER AND OR OBSTRUCTIONS TO VISIBILITY.


SDZ038>040-050-052>070-020500-
SOUTHEAST SOUTH DAKOTA

CITY           SKY/WX    TMP DP  RH WIND       PRES   REMARKS
CHAMBERLAIN    CLOUDY    58  55  89 W7        29.91R
HURON          CLOUDY    60  55  83 W9        29.87S
MADISON        MOCLDY    63  52  67 W10       29.90R
MITCHELL       CLOUDY    61  58  90 SW7       29.89F
SIOUX FALLS    CLOUDY    64  56  75 W8        29.89R
WINNER         FAIR      58  55  90 W10       29.95R
YANKTON        CLOUDY    59  55  88 W9        29.95R
$$

MNZ071-072-080-081-089-090-097-098-020500-
SOUTHWEST MINNESOTA

CITY           SKY/WX    TMP DP  RH WIND       PRES   REMARKS
FAIRMONT       CLEAR     61  55  82 SW6       29.85S
JACKSON        CLEAR     59  55  88 W5        29.87S
LUVERNE        MOCLDY    63  55  77 CALM      29.88S
MARSHALL       MOCLDY    63  52  67 NW7       29.84R
MONTEVIDEO     CLOUDY    63  54  72 CALM      29.84S
PIPESTONE      MOCLDY    61  55  82 CALM      29.88S
REDWOOD FALLS  PTCLDY    65  58  78 W9        29.83R
TRACY          PTCLDY    63  58  84 SW5       29.86R
WINDOM         CLEAR     61  55  82 W5        29.87R
WORTHINGTON    PTCLDY    61  55  82 W7        29.88S
$$

IAZ001>003-012>014-020>022-031-032-NEZ013-014-SDZ071-020500-
NORTHWEST IOWA

CITY           SKY/WX    TMP DP  RH WIND       PRES   REMARKS
CHEROKEE       CLEAR     60  60 100 CALM      29.88S
DENISON        CLEAR     63  63 100 CALM      29.86F
ESTHERVILLE    CLEAR     59  58  96 W6        29.86S
LE MARS          N/A     63  61  94 CALM      29.88S
ORANGE CITY    PTCLDY    63  57  82 CALM      29.88S
SHELDON        CLEAR     59  57  94 CALM      29.86F
SIOUX CITY     MOCLDY    65  63  93 W3        29.88R
SPENCER        CLEAR     57  55  93 W7        29.87S
STORM LAKE     CLEAR     61  61 100 SW5       29.88S
$$

ABBREVIATIONS USED IN REMARKS
   TC - TEMPERATURE IN CELSIUS
  WCI - WIND CHILL INDEX
   HX - HEAT INDEX
  VSB - VISIBILITY




USA.gov is the U.S. government's official web portal to all federal, state and local government web resources and services.